| time (UTC) | temp C | wind direction | speed KPH | gust KPH | rain 1hr cm | rain 24hr cm | rain mn cm | humidity % | barometer mb |
| 20260507134603 | 12 | 248 | 3.2 | 12.9 | 0.00 | 2.59 | 0.53 | 72 | 1005.0 |
| 20260507133132 | 12 | 0 | 3.2 | 16.1 | 0.00 | 2.59 | 0.53 | 71 | 1005.2 |
| 20260507131557 | 12 | 310 | 3.2 | 14.5 | 0.00 | 2.59 | 0.53 | 76 | 1005.4 |
| 20260507130110 | 11 | 346 | 8.0 | 19.3 | 0.00 | 2.59 | 0.53 | 78 | 1005.1 |
| 20260507124559 | 10 | 282 | 4.8 | 20.9 | 0.00 | 2.59 | 0.53 | 82 | 1005.2 |
| 20260507123055 | 10 | 281 | 6.4 | 17.7 | 0.00 | 2.59 | 0.53 | 86 | 1004.7 |
| 20260507121611 | 9 | 275 | 3.2 | 14.5 | 0.00 | 2.59 | 0.53 | 87 | 1005.1 |
| 20260507120105 | 9 | 303 | 6.4 | 14.5 | 0.00 | 2.59 | 0.53 | 88 | 1005.1 |
| 20260507114635 | 8 | 281 | 6.4 | 14.5 | 0.00 | 2.59 | 0.53 | 91 | 1005.6 |
| 20260507113057 | 8 | 259 | 3.2 | 9.7 | 0.00 | 2.59 | 0.53 | 92 | 1005.8 |
| 20260507111603 | 7 | 295 | 3.2 | 14.5 | 0.00 | 2.59 | 0.53 | 91 | 1005.8 |
| 20260507110057 | 7 | 267 | 6.4 | 12.9 | 0.00 | 2.59 | 0.53 | 91 | 1005.6 |
| 20260507104556 | 7 | 263 | 4.8 | 16.1 | 0.00 | 2.59 | 0.53 | 92 | 1005.5 |
| 20260507103056 | 7 | 320 | 4.8 | 12.9 | 0.00 | 2.59 | 0.53 | 93 | 1004.8 |
| 20260507101604 | 7 | 273 | 4.8 | 14.5 | 0.00 | 2.59 | 0.53 | 92 | 1004.9 |
| 20260507094559 | 7 | 308 | 6.4 | 16.1 | 0.00 | 2.59 | 0.53 | 93 | 1004.7 |
| 20260507093055 | 7 | 323 | 4.8 | 12.9 | 0.00 | 2.59 | 0.53 | 94 | 1004.3 |
| 20260507091556 | 7 | 298 | 4.8 | 12.9 | 0.00 | 2.59 | 0.53 | 94 | 1005.2 |
| 20260507090100 | 8 | 259 | 3.2 | 14.5 | 0.00 | 2.59 | 0.53 | 95 | 1004.9 |
| 20260507084601 | 8 | 261 | 4.8 | 19.3 | 0.00 | 2.59 | 0.53 | 95 | 1004.6 |
| 20260507083057 | 8 | 273 | 4.8 | 12.9 | 0.00 | 2.59 | 0.53 | 95 | 1004.2 |
| 20260507081555 | 8 | 261 | 4.8 | 14.5 | 0.00 | 2.59 | 0.53 | 95 | 1004.0 |
| 20260507080117 | 8 | 339 | 4.8 | 14.5 | 0.03 | 2.59 | 0.53 | 95 | 1004.0 |
| 20260507074601 | 8 | 267 | 4.8 | 11.3 | 0.03 | 2.59 | 0.53 | 95 | 1004.0 |
| 20260507073106 | 8 | 333 | 9.7 | 16.1 | 0.03 | 2.59 | 0.53 | 95 | 1003.6 |
| 20260507071557 | 8 | 323 | 8.0 | 20.9 | 0.03 | 2.59 | 0.53 | 95 | 1003.7 |
| 20260507070056 | 8 | 275 | 4.8 | 17.7 | 0.05 | 2.57 | 0.51 | 96 | 1003.2 |
| 20260507064600 | 8 | 279 | 8.0 | 17.7 | 0.28 | 2.57 | 0.51 | 96 | 1003.5 |
| 20260507063106 | 9 | 284 | 6.4 | 17.7 | 0.48 | 2.57 | 0.51 | 96 | 1003.5 |
| 20260507061558 | 9 | 267 | 4.8 | 22.5 | 0.48 | 2.57 | 0.51 | 96 | 1003.3 |
| 20260507060056 | 9 | 323 | 4.8 | 22.5 | 0.43 | 2.51 | 0.46 | 96 | 1002.8 |
| 20260507054556 | 10 | 252 | 9.7 | 19.3 | 0.23 | 2.29 | 0.23 | 96 | 1004.1 |
| 20260507053055 | 10 | 201 | 6.4 | 14.5 | 0.03 | 2.08 | 0.03 | 96 | 1003.1 |
| 20260507051555 | 10 | 269 | 4.8 | 14.5 | 0.03 | 2.08 | 0.03 | 96 | 1003.0 |
| 20260507050057 | 10 | 262 | 4.8 | 16.1 | 0.03 | 2.08 | 0.03 | 96 | 1003.3 |
| 20260507044553 | 10 | 171 | 3.2 | 16.1 | 0.00 | 2.06 | 0.00 | 96 | 1003.4 |
| 20260507043053 | 10 | 267 | 6.4 | 17.7 | 0.00 | 2.06 | 0.00 | 96 | 1003.0 |
| 20260507041556 | 10 | 284 | 1.6 | 17.7 | 0.00 | 2.06 | 0.00 | 96 | 1003.3 |
| 20260507034558 | 10 | 168 | 6.4 | 27.4 | 0.03 | 2.06 | 2.06 | 95 | 1003.7 |
| 20260507033100 | 10 | 146 | 9.7 | 25.7 | 0.05 | 2.06 | 2.06 | 95 | 1003.7 |
| 20260507031556 | 10 | 189 | 11.3 | 38.6 | 0.10 | 2.06 | 2.06 | 95 | 1003.8 |
| 20260507030054 | 11 | 192 | 11.3 | 33.8 | 0.15 | 2.06 | 2.06 | 95 | 1004.0 |
| 20260507024607 | 11 | 194 | 8.0 | 22.5 | 0.20 | 2.03 | 2.03 | 95 | 1004.4 |
| 20260507023056 | 11 | 159 | 4.8 | 22.5 | 0.36 | 2.01 | 2.01 | 95 | 1004.7 |
| 20260507021556 | 11 | 194 | 9.7 | 40.2 | 0.61 | 1.96 | 1.96 | 95 | 1004.7 |
| 20260507020114 | 11 | 141 | 9.7 | 29.0 | 0.74 | 1.91 | 1.91 | 95 | 1004.8 |
| 20260507014601 | 11 | 181 | 11.3 | 33.8 | 0.79 | 1.83 | 1.83 | 95 | 1005.0 |
| 20260507013059 | 11 | 144 | 8.0 | 24.1 | 0.79 | 1.65 | 1.65 | 95 | 1005.4 |
| 20260507011558 | 11 | 120 | 8.0 | 22.5 | 0.61 | 1.32 | 1.32 | 94 | 1005.8 |
| 20260507004605 | 11 | 105 | 3.2 | 19.3 | 0.56 | 1.04 | 1.04 | 94 | 1006.2 |
| 20260507003057 | 11 | 126 | 9.7 | 19.3 | 0.46 | 0.86 | 0.86 | 94 | 1006.4 |
| 20260507001559 | 11 | 78 | 9.7 | 30.6 | 0.41 | 0.74 | 0.74 | 94 | 1006.5 |
| 20260507000058 | 11 | 115 | 9.7 | 30.6 | 0.30 | 0.58 | 0.58 | 94 | 1006.7 |
| 20260506234555 | 11 | 132 | 6.4 | 24.1 | 0.20 | 0.48 | 0.48 | 93 | 1006.9 |
| 20260506233112 | 11 | 140 | 11.3 | 25.7 | 0.15 | 0.41 | 0.41 | 93 | 1006.8 |
| 20260506231602 | 11 | 179 | 4.8 | 16.1 | 0.10 | 0.33 | 0.33 | 94 | 1007.1 |
| 20260506230059 | 11 | 111 | 4.8 | 16.1 | 0.10 | 0.28 | 0.28 | 93 | 1007.0 |
| 20260506224556 | 11 | 103 | 9.7 | 27.4 | 0.23 | 0.28 | 0.28 | 93 | 1007.2 |
| 20260506223055 | 11 | 0 | 4.8 | 24.1 | 0.23 | 0.25 | 0.25 | 93 | 1007.4 |
| 20260506221609 | 11 | 29 | 6.4 | 20.9 | 0.20 | 0.23 | 0.23 | 93 | 1007.4 |
| 20260506220057 | 11 | 158 | 4.8 | 27.4 | 0.15 | 0.15 | 0.15 | 92 | 1007.9 |
| 20260506214557 | 11 | 282 | 11.3 | 22.5 | 0.05 | 0.05 | 0.05 | 92 | 1008.2 |
| 20260506213112 | 11 | 166 | 4.8 | 16.1 | 0.03 | 0.03 | 0.03 | 91 | 1008.0 |
| 20260506211555 | 11 | 140 | 3.2 | 9.7 | 0.03 | 0.03 | 0.03 | 90 | 1007.8 |
| 20260506210058 | 11 | 119 | 6.4 | 32.2 | 0.00 | 0.00 | 0.00 | 89 | 1008.7 |
| 20260506204556 | 12 | 132 | 6.4 | 27.4 | 0.00 | 0.00 | 0.00 | 88 | 1008.6 |
| 20260506203058 | 12 | 96 | 8.0 | 30.6 | 0.00 | 0.00 | 0.00 | 86 | 1008.5 |
| 20260506201556 | 12 | 207 | 6.4 | 27.4 | 0.00 | 0.00 | 0.00 | 86 | 1008.5 |
| 20260506200055 | 12 | 154 | 14.5 | 33.8 | 0.00 | 0.00 | 0.00 | 86 | 1008.2 |
| 20260506194601 | 12 | 190 | 11.3 | 25.7 | 0.00 | 0.00 | 0.00 | 85 | 1008.1 |
| 20260506193057 | 12 | 132 | 12.9 | 32.2 | 0.00 | 0.00 | 0.00 | 84 | 1008.2 |
| 20260506191555 | 13 | 156 | 8.0 | 30.6 | 0.00 | 0.00 | 0.00 | 84 | 1008.5 |
| 20260506190101 | 13 | 228 | 12.9 | 32.2 | 0.00 | 0.00 | 0.00 | 84 | 1008.6 |
| 20260506184609 | 12 | 157 | 9.7 | 20.9 | 0.00 | 0.00 | 0.00 | 84 | 1008.7 |
| 20260506183105 | 12 | 161 | 6.4 | 38.6 | 0.00 | 0.00 | 0.00 | 84 | 1008.8 |
| 20260506181621 | 13 | 104 | 6.4 | 25.7 | 0.00 | 0.00 | 0.00 | 83 | 1008.6 |
| 20260506180058 | 13 | 191 | 6.4 | 29.0 | 0.00 | 0.00 | 0.00 | 84 | 1008.9 |
| 20260506174554 | 13 | 193 | 9.7 | 29.0 | 0.00 | 0.00 | 0.00 | 83 | 1009.1 |
| 20260506173108 | 13 | 215 | 11.3 | 24.1 | 0.00 | 0.00 | 0.00 | 82 | 1009.2 |
| 20260506171555 | 13 | 188 | 11.3 | 40.2 | 0.00 | 0.00 | 0.00 | 82 | 1009.5 |
| 20260506170059 | 14 | 167 | 11.3 | 25.7 | 0.00 | 0.00 | 0.00 | 81 | 1009.6 |
| 20260506164604 | 13 | 193 | 14.5 | 43.5 | 0.00 | 0.00 | 0.00 | 82 | 1009.6 |
| 20260506163100 | 14 | 175 | 11.3 | 35.4 | 0.00 | 0.00 | 0.00 | 82 | 1010.0 |
| 20260506161604 | 15 | 174 | 11.3 | 40.2 | 0.00 | 0.00 | 0.00 | 81 | 1010.1 |
| 20260506160108 | 15 | 261 | 8.0 | 30.6 | 0.00 | 0.00 | 0.00 | 81 | 1010.0 |
| 20260506154603 | 14 | 138 | 11.3 | 29.0 | 0.00 | 0.00 | 0.00 | 83 | 1010.0 |
| 20260506153113 | 14 | 204 | 4.8 | 20.9 | 0.00 | 0.00 | 0.00 | 84 | 1009.7 |
| 20260506151607 | 13 | 321 | 6.4 | 20.9 | 0.00 | 0.00 | 0.00 | 87 | 1010.0 |
| 20260506144557 | 12 | 223 | 9.7 | 25.7 | 0.00 | 0.00 | 0.00 | 88 | 1010.7 |
| 20260506143100 | 12 | 161 | 12.9 | 22.5 | 0.00 | 0.00 | 0.00 | 88 | 1010.8 |
| 20260506141559 | 12 | 239 | 4.8 | 17.7 | 0.00 | 0.00 | 0.00 | 88 | 1010.6 |
| 20260506140111 | 12 | 205 | 3.2 | 14.5 | 0.00 | 0.00 | 0.00 | 88 | 1010.7 |